| time (UTC) | temp F | wind direction | speed knots | gust knots | rain 1hr in | rain 24hr in | rain mn in | humidity % | barometer mb |
| 20260507031005 | 57 | 36 | 3.5 | 7.0 | 0.00 | 0.27 | 0.27 | 81 | 1010.2 |
| 20260507030506 | 57 | 44 | 1.7 | 8.7 | 0.00 | 0.27 | 0.27 | 82 | 1010.0 |
| 20260507030016 | 58 | 323 | 2.6 | 8.7 | 0.00 | 0.27 | 0.27 | 82 | 1010.1 |
| 20260507025506 | 58 | 334 | 0.9 | 4.3 | 0.00 | 0.27 | 0.27 | 82 | 1009.7 |
| 20260507025011 | 58 | 338 | 0.0 | 2.6 | 0.00 | 0.27 | 0.27 | 82 | 1009.9 |
| 20260507024524 | 58 | 334 | 0.9 | 4.3 | 0.00 | 0.27 | 0.27 | 81 | 1009.8 |
| 20260507024002 | 58 | 317 | 1.7 | 4.3 | 0.00 | 0.27 | 0.27 | 81 | 1009.9 |
| 20260507023502 | 58 | 311 | 1.7 | 4.3 | 0.00 | 0.27 | 0.27 | 81 | 1009.7 |
| 20260507023008 | 58 | 313 | 1.7 | 4.3 | 0.00 | 0.27 | 0.27 | 82 | 1009.6 |
| 20260507022507 | 58 | 323 | 1.7 | 3.5 | 0.01 | 0.27 | 0.27 | 82 | 1009.5 |
| 20260507022005 | 58 | 33 | 1.7 | 3.5 | 0.02 | 0.27 | 0.27 | 82 | 1009.5 |
| 20260507021519 | 58 | 321 | 0.9 | 5.2 | 0.02 | 0.27 | 0.27 | 82 | 1009.6 |
| 20260507021009 | 58 | 326 | 0.9 | 5.2 | 0.02 | 0.27 | 0.27 | 82 | 1009.6 |
| 20260507020510 | 58 | 320 | 0.9 | 5.2 | 0.02 | 0.27 | 0.27 | 82 | 1009.5 |
| 20260507020027 | 58 | 321 | 2.6 | 5.2 | 0.02 | 0.27 | 0.27 | 82 | 1009.6 |
| 20260507015504 | 58 | 16 | 1.7 | 5.2 | 0.02 | 0.27 | 0.27 | 82 | 1009.6 |
| 20260507015003 | 59 | 316 | 2.6 | 5.2 | 0.02 | 0.27 | 0.27 | 82 | 1009.6 |
| 20260507014516 | 59 | 301 | 1.7 | 8.7 | 0.02 | 0.27 | 0.27 | 83 | 1009.7 |
| 20260507014005 | 59 | 319 | 3.5 | 8.7 | 0.02 | 0.27 | 0.27 | 82 | 1009.8 |
| 20260507013507 | 59 | 307 | 2.6 | 6.1 | 0.02 | 0.27 | 0.27 | 84 | 1009.9 |
| 20260507013024 | 59 | 328 | 1.7 | 7.0 | 0.02 | 0.27 | 0.27 | 83 | 1009.7 |
| 20260507012508 | 59 | 17 | 2.6 | 7.0 | 0.01 | 0.26 | 0.26 | 82 | 1009.9 |
| 20260507012008 | 60 | 326 | 2.6 | 5.2 | 0.00 | 0.25 | 0.25 | 83 | 1009.8 |
| 20260507011509 | 60 | 329 | 1.7 | 4.3 | 0.00 | 0.25 | 0.25 | 82 | 1009.7 |
| 20260507011003 | 60 | 344 | 2.6 | 5.2 | 0.00 | 0.25 | 0.25 | 83 | 1009.5 |
| 20260507010504 | 60 | 352 | 2.6 | 7.8 | 0.00 | 0.25 | 0.25 | 83 | 1009.5 |
| 20260507010013 | 60 | 317 | 3.5 | 7.8 | 0.00 | 0.25 | 0.25 | 83 | 1009.6 |
| 20260507005505 | 60 | 307 | 2.6 | 4.3 | 0.00 | 0.25 | 0.25 | 84 | 1009.5 |
| 20260507005007 | 60 | 302 | 1.7 | 6.1 | 0.00 | 0.25 | 0.25 | 84 | 1009.2 |
| 20260507004533 | 61 | 311 | 0.9 | 6.1 | 0.00 | 0.25 | 0.25 | 84 | 1009.2 |
| 20260507004009 | 61 | 321 | 1.7 | 5.2 | 0.00 | 0.25 | 0.25 | 84 | 1009.1 |
| 20260507003503 | 61 | 302 | 1.7 | 7.0 | 0.00 | 0.25 | 0.25 | 83 | 1009.1 |
| 20260507003008 | 61 | 321 | 4.3 | 7.0 | 0.00 | 0.25 | 0.25 | 84 | 1009.3 |
| 20260507002504 | 61 | 321 | 1.7 | 6.1 | 0.00 | 0.25 | 0.25 | 85 | 1009.1 |
| 20260507002008 | 62 | 328 | 1.7 | 6.1 | 0.00 | 0.25 | 0.25 | 86 | 1009.0 |
| 20260507001525 | 62 | 333 | 2.6 | 4.3 | 0.00 | 0.25 | 0.25 | 87 | 1008.9 |
| 20260507001007 | 62 | 299 | 2.6 | 4.3 | 0.00 | 0.25 | 0.25 | 89 | 1008.6 |
| 20260507000509 | 63 | 299 | 1.7 | 3.5 | 0.00 | 0.25 | 0.25 | 90 | 1008.4 |
| 20260507000028 | 63 | 3 | 0.9 | 2.6 | 0.00 | 0.25 | 0.25 | 90 | 1008.3 |
| 20260506235508 | 63 | 303 | 0.9 | 2.6 | 0.03 | 0.25 | 0.25 | 90 | 1007.9 |
| 20260506235004 | 64 | 257 | 0.9 | 4.3 | 0.04 | 0.25 | 0.25 | 89 | 1007.7 |
| 20260506234511 | 64 | 210 | 1.7 | 4.3 | 0.04 | 0.25 | 0.25 | 89 | 1007.6 |
| 20260506234006 | 64 | 257 | 1.7 | 4.3 | 0.04 | 0.25 | 0.25 | 90 | 1007.5 |
| 20260506233506 | 63 | 263 | 1.7 | 4.3 | 0.04 | 0.25 | 0.25 | 90 | 1007.5 |
| 20260506233020 | 63 | 269 | 2.6 | 4.3 | 0.04 | 0.25 | 0.25 | 91 | 1007.6 |
| 20260506232506 | 63 | 221 | 0.9 | 3.5 | 0.04 | 0.25 | 0.25 | 91 | 1007.5 |
| 20260506232011 | 63 | 291 | 0.9 | 3.5 | 0.04 | 0.25 | 0.25 | 91 | 1007.5 |
| 20260506231534 | 63 | 293 | 0.9 | 3.5 | 0.04 | 0.25 | 0.25 | 91 | 1007.8 |
| 20260506231003 | 64 | 274 | 0.9 | 3.5 | 0.04 | 0.25 | 0.25 | 91 | 1007.6 |
| 20260506230504 | 64 | 264 | 0.9 | 6.1 | 0.04 | 0.25 | 0.25 | 90 | 1007.6 |
| 20260506230014 | 64 | 298 | 1.7 | 6.1 | 0.04 | 0.25 | 0.25 | 90 | 1007.6 |
| 20260506225507 | 64 | 293 | 0.9 | 2.6 | 0.01 | 0.22 | 0.22 | 89 | 1007.6 |
| 20260506225010 | 64 | 295 | 0.0 | 0.9 | 0.00 | 0.21 | 0.21 | 89 | 1007.5 |
| 20260506224522 | 65 | 295 | 0.0 | 1.7 | 0.00 | 0.21 | 0.21 | 88 | 1007.5 |
| 20260506224007 | 65 | 295 | 0.0 | 1.7 | 0.00 | 0.21 | 0.21 | 88 | 1007.4 |
| 20260506223513 | 65 | 285 | 0.9 | 0.9 | 0.00 | 0.21 | 0.21 | 87 | 1007.5 |
| 20260506223043 | 65 | 247 | 0.0 | 2.6 | 0.00 | 0.21 | 0.21 | 87 | 1007.3 |
| 20260506222507 | 65 | 200 | 0.0 | 2.6 | 0.00 | 0.21 | 0.21 | 86 | 1007.4 |
| 20260506222006 | 66 | 262 | 0.9 | 1.7 | 0.00 | 0.21 | 0.21 | 85 | 1007.4 |
| 20260506221519 | 66 | 289 | 0.0 | 1.7 | 0.00 | 0.21 | 0.21 | 85 | 1007.5 |
| 20260506221010 | 66 | 289 | 0.0 | 3.5 | 0.00 | 0.21 | 0.21 | 84 | 1007.5 |
| 20260506220509 | 66 | 288 | 1.7 | 3.5 | 0.00 | 0.21 | 0.21 | 84 | 1007.4 |
| 20260506220027 | 66 | 275 | 1.7 | 3.5 | 0.00 | 0.21 | 0.21 | 83 | 1007.2 |
| 20260506215509 | 66 | 268 | 1.7 | 4.3 | 0.00 | 0.21 | 0.21 | 83 | 1007.0 |
| 20260506215011 | 66 | 229 | 1.7 | 4.3 | 0.00 | 0.21 | 0.21 | 83 | 1007.0 |
| 20260506214510 | 66 | 276 | 0.9 | 3.5 | 0.00 | 0.21 | 0.21 | 83 | 1006.9 |
| 20260506214007 | 66 | 210 | 1.7 | 4.3 | 0.00 | 0.21 | 0.21 | 83 | 1006.9 |
| 20260506213507 | 66 | 247 | 1.7 | 4.3 | 0.00 | 0.21 | 0.21 | 83 | 1007.0 |
| 20260506213020 | 66 | 179 | 1.7 | 6.1 | 0.00 | 0.21 | 0.21 | 83 | 1006.8 |
| 20260506212505 | 66 | 147 | 1.7 | 7.0 | 0.00 | 0.21 | 0.21 | 82 | 1007.0 |
| 20260506212011 | 67 | 288 | 3.5 | 7.0 | 0.00 | 0.21 | 0.21 | 82 | 1006.9 |
| 20260506211537 | 67 | 236 | 2.6 | 7.0 | 0.00 | 0.21 | 0.21 | 81 | 1006.8 |
| 20260506211010 | 67 | 26 | 2.6 | 7.0 | 0.00 | 0.21 | 0.21 | 80 | 1006.5 |
| 20260506210503 | 67 | 320 | 2.6 | 7.0 | 0.00 | 0.21 | 0.21 | 81 | 1006.6 |
| 20260506210016 | 68 | 269 | 2.6 | 7.8 | 0.00 | 0.21 | 0.21 | 80 | 1006.6 |
| 20260506205506 | 68 | 181 | 2.6 | 7.8 | 0.00 | 0.21 | 0.21 | 80 | 1006.6 |
| 20260506205010 | 68 | 252 | 2.6 | 7.0 | 0.00 | 0.21 | 0.21 | 79 | 1006.5 |
| 20260506204524 | 68 | 149 | 2.6 | 7.0 | 0.00 | 0.21 | 0.21 | 80 | 1006.5 |
| 20260506204003 | 68 | 270 | 3.5 | 7.0 | 0.00 | 0.21 | 0.21 | 80 | 1006.5 |
| 20260506203503 | 68 | 210 | 4.3 | 7.0 | 0.00 | 0.21 | 0.21 | 81 | 1006.4 |
| 20260506203018 | 68 | 244 | 2.6 | 10.4 | 0.00 | 0.21 | 0.21 | 82 | 1006.5 |
| 20260506202504 | 67 | 292 | 2.6 | 10.4 | 0.00 | 0.21 | 0.21 | 83 | 1006.6 |
| 20260506202005 | 67 | 267 | 5.2 | 10.4 | 0.00 | 0.21 | 0.21 | 82 | 1006.6 |
| 20260506201515 | 67 | 227 | 4.3 | 7.8 | 0.00 | 0.21 | 0.21 | 81 | 1006.6 |
| 20260506201003 | 66 | 234 | 4.3 | 8.7 | 0.00 | 0.21 | 0.21 | 82 | 1006.5 |
| 20260506200503 | 66 | 189 | 4.3 | 9.6 | 0.00 | 0.21 | 0.21 | 82 | 1006.5 |
| 20260506200005 | 66 | 275 | 5.2 | 9.6 | 0.00 | 0.21 | 0.21 | 82 | 1006.6 |
| 20260506195503 | 66 | 229 | 3.5 | 7.0 | 0.00 | 0.21 | 0.21 | 83 | 1006.7 |
| 20260506195004 | 66 | 220 | 3.5 | 7.0 | 0.00 | 0.21 | 0.21 | 83 | 1006.7 |
| 20260506194508 | 66 | 272 | 3.5 | 7.8 | 0.00 | 0.21 | 0.21 | 82 | 1006.7 |
| 20260506194004 | 66 | 186 | 4.3 | 7.8 | 0.00 | 0.21 | 0.21 | 82 | 1006.8 |
| 20260506193505 | 66 | 317 | 2.6 | 5.2 | 0.00 | 0.21 | 0.21 | 82 | 1006.8 |
| 20260506193009 | 66 | 227 | 3.5 | 8.7 | 0.00 | 0.21 | 0.21 | 82 | 1006.8 |
| 20260506192502 | 66 | 199 | 2.6 | 8.7 | 0.00 | 0.21 | 0.21 | 82 | 1006.8 |
| 20260506192004 | 66 | 283 | 4.3 | 8.7 | 0.00 | 0.21 | 0.21 | 81 | 1006.8 |
| 20260506191508 | 66 | 191 | 2.6 | 7.8 | 0.00 | 0.21 | 0.21 | 83 | 1006.9 |
| 20260506191007 | 66 | 254 | 4.3 | 7.8 | 0.00 | 0.21 | 0.21 | 82 | 1006.9 |
| 20260506190502 | 66 | 233 | 3.5 | 10.4 | 0.00 | 0.21 | 0.21 | 82 | 1007.0 |
| 20260506190011 | 66 | 218 | 3.5 | 10.4 | 0.00 | 0.21 | 0.21 | 82 | 1006.9 |
| 20260506185504 | 65 | 240 | 5.2 | 10.4 | 0.00 | 0.21 | 0.21 | 82 | 1006.9 |
| 20260506185002 | 65 | 278 | 3.5 | 9.6 | 0.00 | 0.21 | 0.21 | 83 | 1007.0 |
| 20260506184503 | 65 | 250 | 4.3 | 9.6 | 0.00 | 0.21 | 0.21 | 82 | 1007.1 |
| 20260506184004 | 65 | 271 | 5.2 | 9.6 | 0.00 | 0.21 | 0.21 | 82 | 1007.1 |
| 20260506183502 | 65 | 207 | 3.5 | 9.6 | 0.00 | 0.21 | 0.21 | 84 | 1007.2 |
| 20260506183014 | 65 | 209 | 5.2 | 9.6 | 0.00 | 0.21 | 0.21 | 83 | 1007.2 |
| 20260506182505 | 65 | 190 | 3.5 | 9.6 | 0.00 | 0.21 | 0.21 | 84 | 1007.2 |
| 20260506182006 | 64 | 144 | 4.3 | 9.6 | 0.00 | 0.21 | 0.21 | 86 | 1007.2 |
| 20260506181510 | 64 | 228 | 2.6 | 7.0 | 0.00 | 0.21 | 0.21 | 87 | 1007.3 |
| 20260506181003 | 63 | 174 | 3.5 | 8.7 | 0.00 | 0.21 | 0.21 | 88 | 1007.5 |
| 20260506180504 | 63 | 219 | 3.5 | 8.7 | 0.00 | 0.21 | 0.21 | 88 | 1007.5 |
| 20260506180011 | 63 | 184 | 2.6 | 7.8 | 0.00 | 0.21 | 0.21 | 88 | 1007.5 |
| 20260506175502 | 62 | 205 | 4.3 | 7.8 | 0.00 | 0.21 | 0.21 | 88 | 1007.5 |
| 20260506175004 | 62 | 172 | 2.6 | 7.8 | 0.00 | 0.21 | 0.21 | 88 | 1007.5 |
| 20260506174512 | 62 | 202 | 3.5 | 7.8 | 0.00 | 0.21 | 0.21 | 88 | 1007.6 |
| 20260506174004 | 62 | 200 | 2.6 | 7.8 | 0.00 | 0.21 | 0.21 | 88 | 1007.5 |
| 20260506173505 | 62 | 158 | 3.5 | 7.8 | 0.00 | 0.21 | 0.21 | 88 | 1007.5 |
| 20260506173013 | 62 | 175 | 3.5 | 8.7 | 0.00 | 0.21 | 0.21 | 88 | 1007.5 |
| 20260506172504 | 62 | 223 | 3.5 | 9.6 | 0.00 | 0.21 | 0.21 | 88 | 1007.5 |
| 20260506172002 | 62 | 167 | 3.5 | 9.6 | 0.00 | 0.21 | 0.21 | 88 | 1007.6 |
| 20260506171507 | 62 | 225 | 2.6 | 9.6 | 0.00 | 0.21 | 0.21 | 88 | 1007.5 |
| 20260506171004 | 62 | 167 | 4.3 | 9.6 | 0.00 | 0.21 | 0.21 | 88 | 1007.6 |
| 20260506170503 | 62 | 160 | 4.3 | 8.7 | 0.00 | 0.21 | 0.21 | 88 | 1007.6 |
| 20260506170014 | 62 | 214 | 3.5 | 8.7 | 0.00 | 0.21 | 0.21 | 88 | 1007.6 |
| 20260506165510 | 62 | 249 | 2.6 | 7.8 | 0.00 | 0.21 | 0.21 | 89 | 1007.5 |
| 20260506165005 | 62 | 169 | 3.5 | 6.1 | 0.00 | 0.21 | 0.21 | 89 | 1007.5 |
| 20260506164516 | 62 | 160 | 3.5 | 7.0 | 0.00 | 0.21 | 0.21 | 89 | 1007.5 |
| 20260506164004 | 62 | 223 | 3.5 | 8.7 | 0.00 | 0.21 | 0.21 | 89 | 1007.5 |
| 20260506163503 | 61 | 150 | 4.3 | 8.7 | 0.01 | 0.21 | 0.21 | 89 | 1007.4 |
| 20260506163011 | 61 | 188 | 4.3 | 7.0 | 0.01 | 0.21 | 0.21 | 90 | 1007.5 |
| 20260506162502 | 61 | 223 | 1.7 | 7.8 | 0.02 | 0.21 | 0.21 | 90 | 1007.5 |
| 20260506162005 | 61 | 176 | 1.7 | 7.8 | 0.02 | 0.21 | 0.21 | 90 | 1007.5 |
| 20260506161516 | 61 | 149 | 3.5 | 7.8 | 0.03 | 0.21 | 0.21 | 90 | 1007.6 |
| 20260506161007 | 61 | 155 | 3.5 | 7.0 | 0.04 | 0.21 | 0.21 | 90 | 1007.8 |
| 20260506160506 | 61 | 177 | 3.5 | 7.0 | 0.04 | 0.21 | 0.21 | 90 | 1007.8 |
| 20260506160017 | 61 | 222 | 2.6 | 7.0 | 0.05 | 0.21 | 0.21 | 91 | 1007.7 |
| 20260506155502 | 61 | 200 | 1.7 | 6.1 | 0.06 | 0.21 | 0.21 | 91 | 1007.7 |
| 20260506155003 | 61 | 238 | 2.6 | 7.0 | 0.07 | 0.21 | 0.21 | 91 | 1007.7 |
| 20260506154512 | 61 | 169 | 3.5 | 7.0 | 0.07 | 0.21 | 0.21 | 91 | 1007.6 |
| 20260506154004 | 61 | 169 | 2.6 | 6.1 | 0.08 | 0.21 | 0.21 | 91 | 1007.5 |
| 20260506153504 | 61 | 154 | 1.7 | 7.0 | 0.07 | 0.20 | 0.20 | 91 | 1007.6 |
| 20260506153018 | 61 | 145 | 3.5 | 7.0 | 0.08 | 0.20 | 0.20 | 91 | 1007.0 |
| 20260506152506 | 61 | 128 | 3.5 | 7.8 | 0.07 | 0.19 | 0.19 | 91 | 1007.3 |
| 20260506152007 | 61 | 149 | 2.6 | 7.8 | 0.07 | 0.19 | 0.19 | 91 | 1007.6 |
| 20260506151505 | 61 | 145 | 4.3 | 7.8 | 0.07 | 0.18 | 0.18 | 91 | 1007.9 |
| 20260506151004 | 61 | 191 | 2.6 | 8.7 | 0.06 | 0.17 | 0.17 | 91 | 1008.1 |
| 20260506150504 | 61 | 136 | 3.5 | 8.7 | 0.06 | 0.17 | 0.17 | 90 | 1008.1 |
| 20260506150018 | 61 | 175 | 1.7 | 6.1 | 0.06 | 0.16 | 0.16 | 90 | 1008.3 |
| 20260506145506 | 61 | 177 | 2.6 | 7.0 | 0.06 | 0.15 | 0.15 | 90 | 1008.3 |
| 20260506145006 | 61 | 187 | 3.5 | 8.7 | 0.05 | 0.14 | 0.14 | 89 | 1008.5 |
| 20260506144519 | 61 | 167 | 2.6 | 8.7 | 0.06 | 0.14 | 0.14 | 89 | 1008.6 |
| 20260506144006 | 61 | 242 | 2.6 | 7.8 | 0.06 | 0.13 | 0.13 | 89 | 1008.6 |
| 20260506143509 | 61 | 176 | 4.3 | 7.8 | 0.07 | 0.13 | 0.13 | 89 | 1008.6 |
| 20260506143015 | 61 | 200 | 2.6 | 7.8 | 0.08 | 0.12 | 0.12 | 89 | 1008.5 |
| 20260506142504 | 61 | 172 | 4.3 | 8.7 | 0.09 | 0.12 | 0.12 | 89 | 1008.4 |
| 20260506142005 | 61 | 181 | 5.2 | 8.7 | 0.09 | 0.12 | 0.12 | 89 | 1008.3 |
| 20260506141521 | 61 | 162 | 3.5 | 7.8 | 0.08 | 0.11 | 0.11 | 89 | 1008.1 |
| 20260506141009 | 61 | 150 | 3.5 | 7.8 | 0.08 | 0.11 | 0.11 | 88 | 1008.1 |
| 20260506140506 | 61 | 170 | 2.6 | 8.7 | 0.08 | 0.11 | 0.11 | 89 | 1008.0 |
| 20260506140022 | 61 | 148 | 3.5 | 8.7 | 0.07 | 0.10 | 0.10 | 88 | 1007.9 |
| 20260506135505 | 61 | 217 | 3.5 | 8.7 | 0.06 | 0.09 | 0.09 | 88 | 1008.1 |
| 20260506135001 | 61 | 181 | 2.6 | 8.7 | 0.07 | 0.09 | 0.09 | 88 | 1007.9 |
| 20260506134514 | 61 | 172 | 1.7 | 5.2 | 0.06 | 0.08 | 0.08 | 87 | 1008.0 |
| 20260506134005 | 61 | 150 | 2.6 | 5.2 | 0.05 | 0.07 | 0.07 | 86 | 1007.9 |
| 20260506133505 | 62 | 147 | 1.7 | 4.3 | 0.05 | 0.06 | 0.06 | 86 | 1008.1 |
| 20260506133021 | 62 | 210 | 1.7 | 4.3 | 0.03 | 0.04 | 0.04 | 85 | 1008.2 |
| 20260506132509 | 62 | 207 | 1.7 | 4.3 | 0.02 | 0.03 | 0.03 | 85 | 1008.2 |
| 20260506132012 | 62 | 193 | 2.6 | 4.3 | 0.02 | 0.03 | 0.03 | 84 | 1008.1 |
| 20260506131522 | 62 | 141 | 1.7 | 4.3 | 0.02 | 0.03 | 0.03 | 84 | 1008.2 |
| 20260506131007 | 62 | 160 | 1.7 | 4.3 | 0.03 | 0.03 | 0.03 | 84 | 1008.1 |
| 20260506130506 | 62 | 141 | 2.6 | 4.3 | 0.03 | 0.03 | 0.03 | 84 | 1008.1 |
| 20260506130019 | 62 | 167 | 2.6 | 4.3 | 0.03 | 0.03 | 0.03 | 83 | 1008.2 |
| 20260506125506 | 62 | 174 | 1.7 | 4.3 | 0.03 | 0.03 | 0.03 | 83 | 1008.2 |
| 20260506125007 | 62 | 131 | 1.7 | 2.6 | 0.02 | 0.02 | 0.02 | 82 | 1008.2 |
| 20260506124524 | 62 | 193 | 0.9 | 3.5 | 0.02 | 0.02 | 0.02 | 82 | 1008.3 |
| 20260506124008 | 62 | 168 | 1.7 | 4.3 | 0.02 | 0.02 | 0.02 | 81 | 1008.4 |
| 20260506123508 | 62 | 162 | 0.9 | 4.3 | 0.01 | 0.01 | 0.01 | 81 | 1008.4 |
| 20260506123029 | 63 | 170 | 0.9 | 4.3 | 0.01 | 0.01 | 0.01 | 80 | 1008.4 |
| 20260506122505 | 63 | 134 | 1.7 | 4.3 | 0.01 | 0.01 | 0.01 | 80 | 1008.5 |
| 20260506122011 | 63 | 190 | 1.7 | 5.2 | 0.01 | 0.01 | 0.01 | 79 | 1008.6 |
| 20260506121524 | 63 | 172 | 0.9 | 5.2 | 0.01 | 0.01 | 0.01 | 79 | 1008.7 |
| 20260506121007 | 63 | 162 | 1.7 | 6.1 | 0.00 | 0.00 | 0.00 | 77 | 1008.6 |
| 20260506120511 | 63 | 134 | 1.7 | 6.1 | 0.00 | 0.00 | 0.00 | 77 | 1008.6 |
| 20260506120037 | 63 | 169 | 3.5 | 6.1 | 0.00 | 0.00 | 0.00 | 77 | 1008.6 |
| 20260506115507 | 64 | 173 | 0.9 | 6.1 | 0.00 | 0.00 | 0.00 | 76 | 1008.5 |
| 20260506115009 | 64 | 254 | 3.5 | 6.1 | 0.00 | 0.00 | 0.00 | 75 | 1008.2 |
| 20260506114513 | 64 | 195 | 1.7 | 5.2 | 0.00 | 0.00 | 0.00 | 74 | 1008.2 |
| 20260506114010 | 64 | 188 | 2.6 | 5.2 | 0.00 | 0.00 | 0.00 | 73 | 1008.1 |
| 20260506113506 | 64 | 161 | 1.7 | 5.2 | 0.00 | 0.00 | 0.00 | 73 | 1008.0 |
| 20260506113008 | 64 | 166 | 1.7 | 6.1 | 0.00 | 0.00 | 0.00 | 72 | 1008.0 |
| 20260506112506 | 64 | 167 | 3.5 | 6.1 | 0.00 | 0.00 | 0.00 | 73 | 1008.0 |
| 20260506112006 | 65 | 175 | 3.5 | 5.2 | 0.00 | 0.00 | 0.00 | 72 | 1008.0 |
| 20260506111507 | 65 | 185 | 2.6 | 6.1 | 0.00 | 0.00 | 0.00 | 71 | 1007.9 |
| 20260506111006 | 65 | 181 | 3.5 | 7.8 | 0.00 | 0.00 | 0.00 | 70 | 1007.9 |
| 20260506110504 | 65 | 171 | 3.5 | 8.7 | 0.00 | 0.00 | 0.00 | 69 | 1007.8 |
| 20260506110016 | 66 | 212 | 4.3 | 10.4 | 0.00 | 0.00 | 0.00 | 68 | 1007.7 |
| 20260506105508 | 66 | 167 | 3.5 | 10.4 | 0.00 | 0.00 | 0.00 | 68 | 1007.6 |
| 20260506105002 | 65 | 150 | 3.5 | 6.1 | 0.00 | 0.00 | 0.00 | 68 | 1007.5 |
| 20260506104503 | 66 | 165 | 2.6 | 8.7 | 0.00 | 0.00 | 0.00 | 68 | 1007.5 |
| 20260506104002 | 66 | 168 | 4.3 | 8.7 | 0.00 | 0.00 | 0.00 | 67 | 1007.4 |
| 20260506103504 | 66 | 208 | 1.7 | 8.7 | 0.00 | 0.00 | 0.00 | 67 | 1007.5 |
| 20260506103011 | 66 | 172 | 3.5 | 8.7 | 0.00 | 0.00 | 0.00 | 67 | 1007.5 |
| 20260506102504 | 66 | 170 | 3.5 | 7.8 | 0.00 | 0.00 | 0.00 | 66 | 1007.5 |
| 20260506102006 | 66 | 184 | 3.5 | 10.4 | 0.00 | 0.00 | 0.00 | 66 | 1007.4 |
| 20260506101520 | 66 | 221 | 3.5 | 10.4 | 0.00 | 0.00 | 0.00 | 66 | 1007.4 |
| 20260506101007 | 66 | 198 | 2.6 | 9.6 | 0.00 | 0.00 | 0.00 | 66 | 1007.3 |
| 20260506100504 | 66 | 219 | 3.5 | 9.6 | 0.00 | 0.00 | 0.00 | 65 | 1007.4 |
| 20260506100008 | 66 | 272 | 3.5 | 8.7 | 0.00 | 0.00 | 0.00 | 65 | 1007.4 |
| 20260506095505 | 66 | 197 | 3.5 | 8.7 | 0.00 | 0.00 | 0.00 | 65 | 1007.2 |
| 20260506095004 | 66 | 193 | 2.6 | 8.7 | 0.00 | 0.00 | 0.00 | 65 | 1007.3 |
| 20260506094512 | 67 | 156 | 2.6 | 8.7 | 0.00 | 0.00 | 0.00 | 64 | 1007.2 |
| 20260506094003 | 67 | 161 | 4.3 | 7.8 | 0.00 | 0.00 | 0.00 | 64 | 1007.2 |
| 20260506093507 | 67 | 160 | 1.7 | 7.8 | 0.00 | 0.00 | 0.00 | 64 | 1007.0 |
| 20260506093023 | 67 | 155 | 3.5 | 7.8 | 0.00 | 0.00 | 0.00 | 64 | 1007.0 |
| 20260506092503 | 66 | 156 | 2.6 | 6.1 | 0.00 | 0.00 | 0.00 | 64 | 1007.1 |
| 20260506092003 | 67 | 197 | 2.6 | 6.1 | 0.00 | 0.00 | 0.00 | 63 | 1007.3 |
| 20260506091514 | 67 | 160 | 1.7 | 6.1 | 0.00 | 0.00 | 0.00 | 63 | 1007.3 |
| 20260506091003 | 67 | 146 | 1.7 | 6.1 | 0.00 | 0.00 | 0.00 | 62 | 1007.3 |
| 20260506090503 | 67 | 150 | 1.7 | 7.8 | 0.00 | 0.00 | 0.00 | 62 | 1007.5 |
| 20260506090019 | 67 | 171 | 2.6 | 7.8 | 0.00 | 0.00 | 0.00 | 62 | 1007.4 |
| 20260506085511 | 67 | 188 | 2.6 | 7.0 | 0.00 | 0.00 | 0.00 | 62 | 1007.5 |
| 20260506085008 | 67 | 198 | 3.5 | 6.1 | 0.00 | 0.00 | 0.00 | 62 | 1007.6 |
| 20260506084525 | 67 | 218 | 2.6 | 5.2 | 0.00 | 0.00 | 0.00 | 62 | 1007.5 |
| 20260506084004 | 67 | 200 | 2.6 | 4.3 | 0.00 | 0.00 | 0.00 | 62 | 1007.4 |
| 20260506083504 | 67 | 173 | 0.9 | 9.6 | 0.00 | 0.00 | 0.00 | 61 | 1007.5 |
| 20260506083013 | 68 | 233 | 4.3 | 9.6 | 0.00 | 0.00 | 0.00 | 60 | 1007.5 |
| 20260506082504 | 68 | 246 | 1.7 | 6.1 | 0.00 | 0.00 | 0.00 | 60 | 1007.5 |
| 20260506082005 | 68 | 200 | 2.6 | 6.1 | 0.00 | 0.00 | 0.00 | 60 | 1007.5 |
| 20260506081519 | 68 | 185 | 1.7 | 8.7 | 0.00 | 0.00 | 0.00 | 59 | 1007.5 |
| 20260506081008 | 68 | 120 | 3.5 | 8.7 | 0.00 | 0.00 | 0.00 | 59 | 1007.4 |
| 20260506080509 | 69 | 208 | 4.3 | 8.7 | 0.00 | 0.00 | 0.00 | 58 | 1007.5 |
| 20260506073506 | 69 | 174 | 3.5 | 9.6 | 0.00 | 0.00 | 0.00 | 57 | 1007.6 |
| 20260506073024 | 69 | 196 | 4.3 | 9.6 | 0.00 | 0.00 | 0.00 | 57 | 1007.6 |
| 20260506072513 | 69 | 193 | 3.5 | 8.7 | 0.00 | 0.00 | 0.00 | 56 | 1007.6 |
| 20260506072003 | 69 | 183 | 3.5 | 8.7 | 0.00 | 0.00 | 0.00 | 56 | 1007.6 |
| 20260506071507 | 69 | 187 | 3.5 | 7.8 | 0.00 | 0.00 | 0.00 | 56 | 1007.7 |
| 20260506071003 | 70 | 237 | 2.6 | 7.8 | 0.00 | 0.00 | 0.00 | 56 | 1007.8 |
| 20260506070504 | 69 | 160 | 3.5 | 9.6 | 0.00 | 0.00 | 0.00 | 56 | 1007.8 |
| 20260506062505 | 69 | 181 | 2.6 | 5.2 | 0.00 | 0.00 | 0.00 | 55 | 1008.1 |
| 20260506062006 | 69 | 241 | 3.5 | 7.8 | 0.00 | 0.00 | 0.00 | 55 | 1008.3 |
| 20260506061542 | 70 | 165 | 3.5 | 7.8 | 0.00 | 0.00 | 0.00 | 54 | 1008.4 |
| 20260506061008 | 70 | 203 | 3.5 | 7.0 | 0.00 | 0.00 | 0.00 | 54 | 1008.3 |
| 20260506060511 | 69 | 189 | 1.7 | 6.1 | 0.00 | 0.00 | 0.00 | 54 | 1008.3 |
| 20260506051005 | 70 | 191 | 3.5 | 9.6 | 0.00 | 0.00 | 0.00 | 50 | 1008.8 |
| 20260506050506 | 70 | 172 | 3.5 | 9.6 | 0.00 | 0.00 | 0.00 | 50 | 1008.7 |
| 20260506045008 | 70 | 235 | 2.6 | 8.7 | 0.00 | 0.00 | 0.00 | 49 | 1008.6 |
| 20260506044529 | 70 | 229 | 3.5 | 8.7 | 0.00 | 0.00 | 0.00 | 48 | 1008.6 |
| 20260506044010 | 70 | 134 | 1.7 | 7.8 | 0.00 | 0.00 | 0.00 | 48 | 1008.6 |
| 20260506043511 | 70 | 150 | 3.5 | 8.7 | 0.00 | 0.00 | 0.00 | 48 | 1008.7 |
| 20260506043024 | 70 | 146 | 4.3 | 8.7 | 0.00 | 0.00 | 0.00 | 48 | 1008.7 |
| 20260506042505 | 70 | 158 | 2.6 | 7.8 | 0.00 | 0.00 | 0.00 | 47 | 1008.7 |
| 20260506042008 | 70 | 199 | 3.5 | 11.3 | 0.00 | 0.00 | 0.00 | 46 | 1008.7 |
| 20260506041524 | 70 | 205 | 2.6 | 11.3 | 0.00 | 0.00 | 0.00 | 46 | 1008.7 |
| 20260506041008 | 70 | 156 | 2.6 | 8.7 | 0.00 | 0.00 | 0.00 | 46 | 1008.6 |
| 20260506040509 | 70 | 159 | 3.5 | 8.7 | 0.00 | 0.00 | 0.00 | 46 | 1008.7 |
| 20260506040029 | 70 | 264 | 3.5 | 8.7 | 0.00 | 0.00 | 0.00 | 45 | 1008.7 |
| 20260506035509 | 70 | 173 | 3.5 | 9.6 | 0.00 | 0.00 | 0.00 | 45 | 1008.7 |
| 20260506035016 | 70 | 205 | 4.3 | 9.6 | 0.00 | 0.00 | 0.00 | 45 | 1008.8 |
| 20260506034513 | 70 | 122 | 2.6 | 6.1 | 0.00 | 0.00 | 0.00 | 44 | 1008.7 |
| 20260506034002 | 70 | 181 | 2.6 | 7.0 | 0.00 | 0.00 | 0.00 | 44 | 1008.7 |
| 20260506033506 | 70 | 143 | 2.6 | 7.0 | 0.00 | 0.00 | 0.00 | 43 | 1008.7 |
| 20260506033025 | 70 | 132 | 2.6 | 6.1 | 0.00 | 0.00 | 0.00 | 43 | 1008.6 |
| 20260506032507 | 70 | 149 | 2.6 | 8.7 | 0.00 | 0.00 | 0.00 | 42 | 1008.6 |
| 20260506032012 | 70 | 168 | 2.6 | 8.7 | 0.00 | 0.00 | 0.00 | 42 | 1008.7 |
| 20260506031539 | 70 | 189 | 2.6 | 8.7 | 0.00 | 0.00 | 0.00 | 42 | 1008.7 |